This is the latest recevied weather packets stored in our database for station/object R1ZCU-14. If no packets are shown the sender has not sent any weather packets the latest 10 day(s).
| Time | Temp. | Humidity | Pressure | Rain* | Wind** | Luminosity | Snow |
|---|---|---|---|---|---|---|---|
| 1787753298 | 10.56° C | 58% | 1018.9 hPa | - | - | - | - |
| 1787752698 | 11.11° C | 59% | 1018.9 hPa | - | - | - | - |
| 1787752097 | 11.67° C | 59% | 1018.9 hPa | - | - | - | - |
| 1787751497 | 11.11° C | 63% | 1018.9 hPa | - | - | - | - |
| 1787750896 | 10.56° C | 65% | 1018.8 hPa | - | - | - | - |
| 1787750296 | 11.11° C | 65% | 1018.8 hPa | - | - | - | - |
| 1787749695 | 11.11° C | 66% | 1018.8 hPa | - | - | - | - |
| 1787749095 | 10.56° C | 69% | 1018.8 hPa | - | - | - | - |
| 1787748494 | 10° C | 71% | 1018.9 hPa | - | - | - | - |
| 1787747894 | 10.56° C | 66% | 1019 hPa | - | - | - | - |
| 1787747294 | 10.56° C | 67% | 1018.8 hPa | - | - | - | - |
| 1787746693 | 10.56° C | 64% | 1018.7 hPa | - | - | - | - |
| 1787746092 | 11.11° C | 63% | 1018.8 hPa | - | - | - | - |
| 1787745492 | 12.22° C | 60% | 1018.7 hPa | - | - | - | - |
| 1787744891 | 11.11° C | 62% | 1018.6 hPa | - | - | - | - |
| 1787744291 | 10.56° C | 71% | 1018.7 hPa | - | - | - | - |
| 1787743691 | 11.11° C | 68% | 1018.8 hPa | - | - | - | - |
| 1787743090 | 11.67° C | 63% | 1018.7 hPa | - | - | - | - |
| 1787742490 | 12.22° C | 62% | 1018.4 hPa | - | - | - | - |
| 1787741889 | 11.11° C | 71% | 1018.4 hPa | - | - | - | - |
| 1787741289 | 10.56° C | 72% | 1018.4 hPa | - | - | - | - |
| 1787740688 | 11.11° C | 72% | 1018.5 hPa | - | - | - | - |
| 1787740088 | 10.56° C | 75% | 1018 hPa | - | - | - | - |
| 1787739487 | 10.56° C | 76% | 1018.2 hPa | - | - | - | - |
| 1787738886 | 11.67° C | 72% | 1018.1 hPa | - | - | - | - |
* Rain since midnight (hover to see other rain measurements)
** Current wind speed in m/s (hover to see current wind gust speed)